Location: Serpentine
(32.3617°S, 115.9768°E)
Time: 03:42:19
(UTC+08:00)

N. Korean satellite - Visible Passes

Search period start: 14 April 2021 00:00
Search period end: 24 April 2021 00:00
Orbit: 453 x 499 km, 97.2° (Epoch: 13 April)

Date Brightness Start Highest point End Pass type
(mag) Time Alt. Az. Time Alt. Az. Time Alt. Az.
14 Apr 9.2 04:13:41 10° ENE 04:16:09 18° ESE 04:16:52 17° SE visible
14 Apr 8.0 05:46:56 10° NW 05:49:18 17° W 05:51:01 13° WSW visible
15 Apr 6.8 05:18:56 10° N 05:22:14 42° W 05:23:17 32° SW visible
15 Apr 9.5 18:22:43 10° SSW 18:25:14 19° WSW 18:27:46 10° WNW visible
16 Apr 6.6 04:51:50 10° NNE 04:55:16 71° ESE 04:55:39 63° SSE visible
17 Apr 8.6 04:25:26 10° NE 04:28:04 26° E 04:28:04 26° E visible
17 Apr 8.4 06:00:29 10° WNW 06:01:41 11° W 06:02:14 11° W visible
18 Apr 9.9 04:00:17 10° E 04:00:33 11° E 04:00:33 11° E visible
18 Apr 7.4 05:31:36 10° NNW 05:34:35 27° W 05:34:43 27° W visible
18 Apr 9.8 18:35:46 10° SW 18:37:27 13° WSW 18:39:10 10° W visible
19 Apr 6.4 05:04:07 10° N 05:07:13 65° NNW 05:07:13 65° NNW visible
20 Apr 8.1 04:37:22 10° NNE 04:39:44 33° ENE 04:39:44 33° ENE visible
21 Apr 9.6 04:11:28 10° ENE 04:12:17 14° ENE 04:12:17 14° ENE visible
21 Apr 8.0 05:44:28 10° NW 05:46:27 18° WNW 05:46:27 18° WNW visible
22 Apr 7.1 05:16:32 10° N 05:19:01 37° NW 05:19:01 37° NW visible
22 Apr 9.5 18:20:10 10° SSW 18:22:52 20° WSW 18:25:35 10° WNW visible
23 Apr 7.7 04:49:27 10° NNE 04:51:35 35° NNE 04:51:35 35° NNE visible
